Location: Piotrkow Trybunalski
(51.4000°N, 19.6830°E)
Time: 05:57:02
(UTC+02:00)

STRAND 1 - Pass Details

Date: 02 March 2024
Orbit: 764 x 779 km, 98.4° (Epoch: 24 April)

Event Time Altitude Azimuth Distance (km) Brightness Sun altitude
Rises 03:49:07 0° 126° (SE) 3,257 ? -24.5°
Reaches altitude 10° 03:51:45 10° 114° (ESE) 2,334 ? -24.2°
Maximum altitude 03:55:56 26° 59° (ENE) 1,508 ? -23.5°
Drops below altitude 10° 04:00:08 10° 5° (N) 2,343 ? -22.9°
Sets 04:02:46 0° 353° (N) 3,274 ? -22.5°
